Location: Hermaringen
(48.5952°N, 10.2585°E)
Time: 02:27:20
(UTC+00:00)

Resurs 01 Rocket - Pass Details

Date: 18 November 2025
Orbit: 627 x 636 km, 97.7° (Epoch: 04 December)

Event Time Altitude Azimuth Distance (km) Brightness Sun altitude
Exits shadow 17:30:08 19° 23° (NNE) 1,538 3.3 -18.6°
Drops below altitude 10° 17:31:43 10° 7° (N) 2,035 4.0 -18.9°
Sets 17:34:09 0° 356° (N) 2,947 5.0 -19.3°
